LITTLE ISLAND AK US NWS current weather conditions

sailwx.info

Wind from 350 at 6 knots gusting 9

Air temperature 12.7° C
Dewpoint 11.9° C

Last reported at 2020-Aug-05 04:12 UTC.
Time now 2020-Aug-05 04:59 UTC

Location: N 58°32' W 135°03'.
View on Google Maps.

See reports from other nearby stations

  
Tides and Currents Weather Stations Pressure Air Temp Water Temp Dewpoint Dewpoint Depression Visibility Wind Speed Wind Dir Waves Ship Positions
date/time (UTC)wind fromknots sea level pressurealtimeterstation pressurevisibilityair tempwater tempwave heightnotes
2020-Aug-05 04:12 350 6 gusting 9 12.7
2020-Aug-05 04:02 350 6 gusting 8 12.7
2020-Aug-05 03:52 350 6 gusting 7 12.8
2020-Aug-05 03:42 350 6 gusting 8 12.7
2020-Aug-05 03:32 350 6 gusting 8 12.7
2020-Aug-05 03:22 360 5 gusting 7 12.8
2020-Aug-05 03:12 360 5 gusting 7 12.8
2020-Aug-05 03:03 350 5 gusting 6 12.8
2020-Aug-05 02:52 350 5 gusting 7 12.8
2020-Aug-05 02:42 340 6 gusting 8 12.7
2020-Aug-05 02:32 340 5 gusting 8 12.8
2020-Aug-05 02:22 350 6 gusting 8 12.8
2020-Aug-05 02:12 350 6 gusting 7 12.8
2020-Aug-05 02:02 350 6 gusting 8 12.7
2020-Aug-05 01:52 360 6 gusting 8 12.7
2020-Aug-05 01:43 360 6 gusting 8 12.7
2020-Aug-05 01:32 360 6 gusting 8 12.9
2020-Aug-05 01:22 350 6 gusting 8 12.9
2020-Aug-05 01:12 350 6 gusting 8 12.9
2020-Aug-05 01:02 350 6 gusting 8 12.9
2020-Aug-05 00:52 340 6 gusting 8 13.0
2020-Aug-05 00:42 340 6 gusting 7 13.0
2020-Aug-05 00:32 340 6 gusting 7 13.0
2020-Aug-05 00:22 340 6 gusting 7 13.0
2020-Aug-05 00:12 350 5 gusting 7 13.1
2020-Aug-04 23:52 360 5 gusting 7 13.0
2020-Aug-04 23:42 350 6 gusting 7 12.9
2020-Aug-04 23:32 350 5 gusting 6 12.9
2020-Aug-04 23:22 350 6 gusting 7 12.9
2020-Aug-04 23:12 350 6 gusting 7 12.7
2020-Aug-04 23:02 360 6 gusting 7 12.7
2020-Aug-04 22:52 360 6 gusting 8 12.7
2020-Aug-04 22:42 360 6 gusting 7 12.6
2020-Aug-04 22:32 360 6 gusting 8 12.6
2020-Aug-04 22:22 360 6 gusting 8 12.6
2020-Aug-04 22:12 360 6 gusting 7 12.6
2020-Aug-04 22:02 010 5 gusting 7 12.8
2020-Aug-04 21:52 360 5 gusting 7 12.7
2020-Aug-04 21:42 360 4 gusting 6 12.7
2020-Aug-04 21:32 010 5 gusting 7 12.6
2020-Aug-04 21:22 010 5 gusting 7 12.8
2020-Aug-04 21:12 360 6 gusting 9 12.6
2020-Aug-04 21:03 360 6 gusting 8 12.6
2020-Aug-04 20:52 350 6 gusting 9 12.7
2020-Aug-04 20:42 350 6 gusting 7 12.6
2020-Aug-04 20:32 360 5 gusting 7 12.5
2020-Aug-04 20:22 350 6 gusting 7 12.3
2020-Aug-04 20:12 360 5 gusting 7 12.3
2020-Aug-04 20:02 010 5 gusting 6 12.3
2020-Aug-04 19:52 360 4 gusting 6 12.4
2020-Aug-04 19:42 360 4 gusting 6 12.5
2020-Aug-04 19:32 010 2 gusting 6 12.5
2020-Aug-04 19:22 360 4 gusting 6 12.4
2020-Aug-04 19:12 360 4 gusting 6 12.4
2020-Aug-04 19:02 340 4 gusting 5 12.3
2020-Aug-04 18:52 340 2 gusting 6 12.3
2020-Aug-04 18:42 360 4 gusting 6 12.3
2020-Aug-04 18:32 360 4 gusting 6 12.3
2020-Aug-04 18:22 360 2 gusting 5 12.3
2020-Aug-04 18:12 360 2 gusting 6 12.3
2020-Aug-04 18:02 360 2 gusting 5 12.3
2020-Aug-04 17:52 360 2 gusting 5 12.3
2020-Aug-04 17:42 350 4 gusting 6 12.2
2020-Aug-04 17:32 350 5 gusting 6 12.2
2020-Aug-04 17:22 350 5 gusting 6 12.1
2020-Aug-04 17:12 360 5 gusting 6 12.2
2020-Aug-04 17:02 350 4 gusting 6 12.2
2020-Aug-04 16:52 360 4 gusting 6 12.3
2020-Aug-04 16:42 010 2 gusting 5 12.3
2020-Aug-04 16:32 010 4 gusting 6 12.2
2020-Aug-04 16:22 010 4 gusting 6 12.4
2020-Aug-04 16:12 360 4 gusting 6 12.5
2020-Aug-04 16:02 360 4 gusting 6 12.5
2020-Aug-04 15:52 360 2 gusting 5 12.5
2020-Aug-04 15:42 340 2 gusting 4 12.5
2020-Aug-04 15:32 350 2 gusting 5 12.5
2020-Aug-04 15:22 360 4 gusting 6 12.5
2020-Aug-04 15:12 360 4 gusting 6 12.5
2020-Aug-04 15:02 010 2 gusting 5 12.6
2020-Aug-04 14:52 250 1 gusting 5 12.6
2020-Aug-04 14:42 250 2 gusting 5 12.6
2020-Aug-04 14:32 240 1 gusting 5 12.6
2020-Aug-04 14:22 240 1 gusting 5 12.6
2020-Aug-04 14:12 240 1 gusting 4 12.6
2020-Aug-04 14:02 240 1 gusting 4 12.5
2020-Aug-04 13:52 230 1 gusting 5 12.5
2020-Aug-04 13:42 230 1 gusting 4 12.5
2020-Aug-04 13:32 230 1 gusting 4 12.5
2020-Aug-04 13:22 200 4 gusting 6 12.4
2020-Aug-04 13:12 200 4 gusting 6 12.5
2020-Aug-04 13:02 220 5 gusting 6 12.5
2020-Aug-04 12:52 220 5 gusting 8 12.6
2020-Aug-04 12:42 220 6 gusting 8 12.6
2020-Aug-04 12:32 230 6 gusting 11 12.6
2020-Aug-04 12:22 220 7 gusting 12 12.7
2020-Aug-04 12:12 220 6 gusting 11 12.7
2020-Aug-04 12:02 220 6 gusting 9 12.8
2020-Aug-04 11:52 210 6 gusting 11 12.8
2020-Aug-04 11:42 200 6 gusting 8 12.8
2020-Aug-04 11:32 190 6 gusting 8 12.8
2020-Aug-04 11:22 180 7 gusting 9 12.8
2020-Aug-04 11:12 180 8 gusting 12 12.8
2020-Aug-04 11:02 180 7 gusting 12 12.8
2020-Aug-04 10:52 180 8 gusting 12 12.8
2020-Aug-04 10:42 180 9 gusting 13 12.9
2020-Aug-04 10:32 170 7 gusting 12 12.8
2020-Aug-04 10:22 160 7 gusting 12 12.8
2020-Aug-04 10:12 160 8 gusting 13 12.9
2020-Aug-04 10:02 160 7 gusting 13 13.0
2020-Aug-04 09:52 150 7 gusting 11 13.2
2020-Aug-04 09:42 170 6 gusting 9 13.2
2020-Aug-04 09:32 150 9 gusting 13 13.2
2020-Aug-04 09:22 140 11 gusting 13 13.3
2020-Aug-04 09:12 150 9 gusting 13 13.4
2020-Aug-04 09:02 150 11 gusting 15 13.4
2020-Aug-04 08:52 160 8 gusting 15 13.2
2020-Aug-04 08:42 150 9 gusting 14 13.2
2020-Aug-04 08:32 160 11 gusting 14 13.3
2020-Aug-04 08:22 150 12 gusting 15 13.5
2020-Aug-04 08:12 160 11 gusting 17 13.5
2020-Aug-04 08:02 160 12 gusting 17 13.6
2020-Aug-04 07:52 150 13 gusting 18 13.6
2020-Aug-04 07:42 150 13 gusting 18 13.5
2020-Aug-04 07:32 150 11 gusting 14 13.4
2020-Aug-04 07:22 140 11 gusting 13 13.5
2020-Aug-04 07:12 150 13 gusting 15 13.5
2020-Aug-04 07:02 140 14 gusting 19 13.6
2020-Aug-04 06:52 150 14 gusting 20 13.5
2020-Aug-04 06:42 150 14 gusting 19 13.6
2020-Aug-04 06:32 150 14 gusting 24 13.7
2020-Aug-04 06:22 150 14 gusting 22 13.7
2020-Aug-04 06:12 160 14 gusting 20 13.7
2020-Aug-04 06:02 160 13 gusting 20 13.7
2020-Aug-04 05:52 160 14 gusting 20 13.7
2020-Aug-04 05:42 160 14 gusting 22 13.5
2020-Aug-04 05:32 160 18 gusting 25 13.4
2020-Aug-04 05:22 160 17 gusting 22 13.5
2020-Aug-04 05:12 160 15 gusting 21 13.5
2020-Aug-04 05:02 150 14 gusting 21 13.7
2020-Aug-04 04:52 160 13 gusting 20 13.8
2020-Aug-04 04:42 150 12 gusting 18 13.9
2020-Aug-04 04:32 150 13 gusting 19 13.9
2020-Aug-04 04:22 150 13 gusting 18 13.9
2020-Aug-04 04:12 140 12 gusting 15 13.9
2020-Aug-04 04:02 140 12 gusting 14 13.9
2020-Aug-04 03:52 150 12 gusting 15 13.9
2020-Aug-04 03:42 140 12 gusting 15 13.9
2020-Aug-04 03:32 150 9 gusting 15 13.9
2020-Aug-04 03:22 150 11 gusting 15 13.8
2020-Aug-04 03:12 150 12 gusting 20 13.8
2020-Aug-04 03:02 160 13 gusting 18 13.8
2020-Aug-04 02:52 160 12 gusting 19 13.9
2020-Aug-04 02:42 150 13 gusting 20 14.0
2020-Aug-04 02:32 150 12 gusting 17 14.0
2020-Aug-04 02:22 150 15 gusting 22 14.0
2020-Aug-04 02:12 150 9 gusting 15 14.1
2020-Aug-04 02:02 150 12 gusting 20 14.2
2020-Aug-04 01:52 160 12 gusting 18 14.1
2020-Aug-04 01:42 150 8 gusting 13 14.1
2020-Aug-04 01:32 150 11 gusting 17 14.0
2020-Aug-04 01:22 160 11 gusting 17 14.0
2020-Aug-04 01:12 170 13 gusting 20 14.0
2020-Aug-04 01:02 170 13 gusting 20 14.1
2020-Aug-04 00:52 160 13 gusting 20 14.3
2020-Aug-04 00:42 160 11 gusting 15 14.5
2020-Aug-04 00:32 160 11 gusting 15 14.7
2020-Aug-04 00:22 160 11 gusting 18 14.9
2020-Aug-04 00:12 160 9 gusting 17 14.7
2020-Aug-03 23:52 160 11 gusting 14 14.6
2020-Aug-03 23:42 160 9 gusting 14 14.8
2020-Aug-03 23:32 160 7 gusting 12 14.9
2020-Aug-03 23:22 160 7 gusting 13 15.0
2020-Aug-03 23:12 160 8 gusting 14 14.9
2020-Aug-03 23:02 170 9 gusting 14 15.0
2020-Aug-03 22:52 160 9 gusting 15 14.9
2020-Aug-03 22:42 160 7 gusting 13 15.0
2020-Aug-03 22:32 170 9 gusting 13 14.9
2020-Aug-03 22:22 160 9 gusting 17 15.2
2020-Aug-03 22:12 150 9 gusting 13 15.0
2020-Aug-03 22:02 150 9 gusting 14 14.9
2020-Aug-03 21:52 150 11 gusting 15 14.9
2020-Aug-03 21:42 150 8 gusting 14 15.2
2020-Aug-03 21:32 150 11 gusting 15 15.2
2020-Aug-03 21:22 150 12 gusting 14 15.2
2020-Aug-03 21:12 150 13 gusting 17 15.1
2020-Aug-03 21:02 140 12 gusting 14 14.9
2020-Aug-03 20:53 140 12 gusting 14 14.8
2020-Aug-03 20:42 130 13 gusting 17 14.5
2020-Aug-03 20:32 120 12 gusting 18 14.4
2020-Aug-03 20:22 130 13 gusting 17 14.6
2020-Aug-03 20:12 140 13 gusting 18 14.8
2020-Aug-03 20:02 150 14 gusting 19 14.7
2020-Aug-03 19:52 140 14 gusting 20 14.6
2020-Aug-03 19:42 140 13 gusting 19 14.5
2020-Aug-03 19:32 140 13 gusting 17 14.4
2020-Aug-03 19:22 140 11 gusting 15 14.2
2020-Aug-03 19:12 130 12 gusting 15 14.0
2020-Aug-03 19:02 130 13 gusting 17 13.9
2020-Aug-03 18:52 130 13 gusting 17 14.0
2020-Aug-03 18:42 140 9 gusting 12 14.2
2020-Aug-03 18:32 130 8 gusting 12 14.1
2020-Aug-03 18:22 150 6 gusting 11 14.1
2020-Aug-03 18:12 150 8 gusting 13 14.1
2020-Aug-03 18:02 140 8 gusting 12 14.0
2020-Aug-03 17:52 150 7 gusting 9 14.0
2020-Aug-03 17:42 150 7 gusting 12 14.0
2020-Aug-03 17:32 140 7 gusting 12 13.9
2020-Aug-03 17:22 140 8 gusting 12 13.8
2020-Aug-03 17:12 140 8 gusting 13 13.8
2020-Aug-03 17:02 150 7 gusting 11 13.8
2020-Aug-03 16:52 140 7 gusting 12 13.7
2020-Aug-03 16:42 130 8 gusting 11 13.6
2020-Aug-03 16:32 130 8 gusting 11 13.6
2020-Aug-03 16:22 130 8 gusting 12 13.6
2020-Aug-03 16:12 140 6 gusting 9 13.6
2020-Aug-03 16:02 140 6 gusting 8 13.6
2020-Aug-03 15:52 140 6 gusting 8 13.5
2020-Aug-03 15:42 140 7 gusting 11 13.5
2020-Aug-03 15:32 140 7 gusting 11 13.5
2020-Aug-03 15:22 140 6 gusting 11 13.5
2020-Aug-03 15:12 150 6 gusting 11 13.5
2020-Aug-03 15:02 150 6 gusting 9 13.6
2020-Aug-03 14:52 150 7 gusting 11 13.6
2020-Aug-03 14:42 150 6 gusting 11 13.6
2020-Aug-03 14:32 150 7 gusting 13 13.6
2020-Aug-03 14:22 140 7 gusting 11 13.6
2020-Aug-03 14:12 140 7 gusting 11 13.5
2020-Aug-03 14:02 150 6 gusting 11 13.5
2020-Aug-03 13:52 150 6 gusting 9 13.5
2020-Aug-03 13:42 150 6 gusting 9 13.5
2020-Aug-03 13:32 150 6 gusting 9 13.5
2020-Aug-03 13:22 150 6 gusting 7 13.5
2020-Aug-03 13:12 150 6 gusting 9 13.5
2020-Aug-03 13:02 140 7 gusting 11 13.5
2020-Aug-03 12:52 140 7 gusting 11 13.6
2020-Aug-03 12:42 140 8 gusting 11 13.6
2020-Aug-03 12:32 140 9 gusting 13 13.6
2020-Aug-03 12:22 140 11 gusting 13 13.6
2020-Aug-03 12:12 140 7 gusting 13 13.6
2020-Aug-03 12:02 150 6 gusting 9 13.5
2020-Aug-03 11:52 150 7 gusting 9 13.5
2020-Aug-03 11:42 150 7 gusting 9 13.6
2020-Aug-03 11:32 150 7 gusting 9 13.5
2020-Aug-03 11:22 150 6 gusting 9 13.6
2020-Aug-03 11:12 150 6 gusting 8 13.6
2020-Aug-03 11:02 150 6 gusting 7 13.5
2020-Aug-03 10:52 150 5 gusting 7 13.5
2020-Aug-03 10:42 150 6 gusting 6 13.6
2020-Aug-03 10:32 150 6 gusting 7 13.5
2020-Aug-03 10:22 150 6 gusting 7 13.5
2020-Aug-03 10:13 160 6 gusting 7 13.5
2020-Aug-03 10:02 160 6 gusting 7 13.5
2020-Aug-03 09:52 170 6 gusting 8 13.5
2020-Aug-03 09:42 180 6 gusting 8 13.5
2020-Aug-03 09:32 170 6 gusting 9 13.5
2020-Aug-03 09:22 170 6 gusting 9 13.6
2020-Aug-03 09:12 190 6 gusting 11 13.7
2020-Aug-03 09:02 180 5 gusting 6 13.7
2020-Aug-03 08:52 150 4 gusting 6 13.8
2020-Aug-03 08:43 190 6 gusting 8 13.8
2020-Aug-03 08:32 170 6 gusting 7 13.6
2020-Aug-03 08:22 140 5 gusting 6 13.5
2020-Aug-03 08:12 170 5 gusting 6 13.8
2020-Aug-03 08:02 180 5 gusting 6 14.0
2020-Aug-03 07:52 170 5 gusting 6 14.0
2020-Aug-03 07:42 160 5 gusting 6 14.1
2020-Aug-03 07:33 160 5 gusting 6 14.1
2020-Aug-03 07:22 150 4 gusting 6 14.0
2020-Aug-03 07:12 140 5 gusting 6 13.9
2020-Aug-03 07:02 150 5 gusting 6 14.1
2020-Aug-03 06:52 150 4 gusting 6 14.1
2020-Aug-03 06:42 140 4 gusting 5 14.1
2020-Aug-03 06:32 150 4 gusting 6 14.2
2020-Aug-03 06:22 160 5 gusting 6 14.2
2020-Aug-03 06:12 160 5 gusting 6 14.3
2020-Aug-03 06:02 160 5 gusting 6 14.3
2020-Aug-03 05:52 180 5 gusting 6 14.3
2020-Aug-03 05:42 190 6 gusting 7 14.3
2020-Aug-03 05:32 190 5 gusting 7 14.4
2020-Aug-03 05:22 180 5 gusting 7 14.4
2020-Aug-03 05:12 170 6 gusting 11 14.4
2020-Aug-03 05:02 170 6 gusting 9 14.5
2020-Aug-03 04:52 180 6 gusting 9 14.6
2020-Aug-03 04:42 180 6 gusting 8 14.7
2020-Aug-03 04:32 170 6 gusting 8 14.8
2020-Aug-03 04:22 180 6 gusting 7 14.9
2020-Aug-03 04:12 170 5 gusting 6 15.0
2020-Aug-03 04:02 170 5 gusting 6 15.0